| time (UTC) | temp F | wind direction | speed MPH | gust MPH | rain 1hr in | rain 24hr in | rain mn in | humidity % | barometer mb |
| 20260905144536 | 88 | 189 | 3.0 | 12.0 | 0.00 | 0.00 | 0.00 | 52 | 1017.4 |
| 20260905143019 | 87 | 172 | 9.0 | 15.0 | 0.00 | 0.00 | 0.00 | 52 | 1017.4 |
| 20260905141510 | 87 | 153 | 7.0 | 13.0 | 0.00 | 0.00 | 0.00 | 55 | 1017.6 |
| 20260905140009 | 87 | 173 | 5.0 | 14.0 | 0.00 | 0.00 | 0.00 | 56 | 1017.6 |
| 20260905134514 | 87 | 153 | 6.0 | 15.0 | 0.00 | 0.00 | 0.00 | 57 | 1017.6 |
| 20260905133009 | 86 | 145 | 7.0 | 15.0 | 0.00 | 0.00 | 0.00 | 55 | 1017.7 |
| 20260905131507 | 86 | 157 | 8.0 | 16.0 | 0.00 | 0.00 | 0.00 | 59 | 1017.7 |
| 20260905130005 | 87 | 144 | 10.0 | 16.0 | 0.00 | 0.00 | 0.00 | 56 | 1017.9 |
| 20260905124502 | 86 | 122 | 10.0 | 18.0 | 0.00 | 0.00 | 0.00 | 56 | 1017.9 |
| 20260905123002 | 86 | 128 | 10.0 | 17.0 | 0.00 | 0.00 | 0.00 | 56 | 1018.1 |
| 20260905121500 | 88 | 139 | 12.0 | 16.0 | 0.00 | 0.00 | 0.00 | 52 | 1018.2 |
| 20260905120100 | 88 | 146 | 10.0 | 15.0 | 0.00 | 0.00 | 0.00 | 44 | 1018.4 |
| 20260905114627 | 88 | 142 | 9.0 | 15.0 | 0.00 | 0.00 | 0.00 | 50 | 1018.5 |
| 20260905113058 | 88 | 133 | 11.0 | 15.0 | 0.00 | 0.00 | 0.00 | 49 | 1018.5 |
| 20260905111555 | 89 | 141 | 9.0 | 13.0 | 0.00 | 0.00 | 0.00 | 41 | 1018.6 |
| 20260905110053 | 90 | 127 | 5.0 | 12.0 | 0.00 | 0.00 | 0.00 | 40 | 1018.6 |
| 20260905104554 | 89 | 113 | 8.0 | 12.0 | 0.00 | 0.00 | 0.00 | 40 | 1018.6 |
| 20260905103052 | 90 | 134 | 8.0 | 13.0 | 0.00 | 0.00 | 0.00 | 35 | 1018.7 |
| 20260905101552 | 90 | 126 | 6.0 | 11.0 | 0.00 | 0.00 | 0.00 | 34 | 1018.8 |
| 20260905100109 | 90 | 148 | 4.0 | 9.0 | 0.00 | 0.00 | 0.00 | 34 | 1018.9 |
| 20260905094604 | 90 | 138 | 4.0 | 9.0 | 0.00 | 0.00 | 0.00 | 33 | 1019.0 |
| 20260905093049 | 90 | 150 | 5.0 | 9.0 | 0.00 | 0.00 | 0.00 | 31 | 1019.0 |
| 20260905091559 | 90 | 158 | 4.0 | 9.0 | 0.00 | 0.00 | 0.00 | 33 | 1019.2 |
| 20260905090049 | 90 | 139 | 3.0 | 7.0 | 0.00 | 0.00 | 0.00 | 32 | 1019.2 |
| 20260905084548 | 91 | 140 | 1.0 | 5.0 | 0.00 | 0.00 | 0.00 | 31 | 1019.3 |
| 20260905083047 | 89 | 56 | 0.0 | 5.0 | 0.00 | 0.00 | 0.00 | 36 | 1019.3 |
| 20260905081547 | 90 | 89 | 2.0 | 4.0 | 0.00 | 0.00 | 0.00 | 34 | 1019.3 |
| 20260905080046 | 91 | 179 | 0.0 | 3.0 | 0.00 | 0.00 | 0.00 | 30 | 1019.3 |
| 20260905074553 | 89 | 316 | 0.0 | 1.0 | 0.00 | 0.00 | 0.00 | 33 | 1019.2 |
| 20260905073057 | 88 | 222 | 0.0 | 4.0 | 0.00 | 0.00 | 0.00 | 35 | 1019.2 |
| 20260905071535 | 86 | 280 | 1.0 | 4.0 | 0.00 | 0.00 | 0.00 | 38 | 1019.1 |
| 20260905070032 | 84 | 203 | 1.0 | 4.0 | 0.00 | 0.00 | 0.00 | 40 | 1019.2 |
| 20260905064528 | 82 | 255 | 2.0 | 5.0 | 0.00 | 0.00 | 0.00 | 41 | 1019.1 |
| 20260905063022 | 79 | 276 | 1.0 | 6.0 | 0.00 | 0.00 | 0.00 | 43 | 1019.0 |
| 20260905061517 | 77 | 281 | 2.0 | 7.0 | 0.00 | 0.00 | 0.00 | 44 | 1019.1 |
| 20260905060016 | 76 | 311 | 2.0 | 7.0 | 0.00 | 0.00 | 0.00 | 45 | 1019.1 |
| 20260905054514 | 74 | 270 | 3.0 | 10.0 | 0.00 | 0.00 | 0.00 | 46 | 1019.1 |
| 20260905053014 | 74 | 240 | 3.0 | 7.0 | 0.00 | 0.00 | 0.00 | 47 | 1019.1 |
| 20260905051510 | 73 | 206 | 3.0 | 8.0 | 0.00 | 0.00 | 0.00 | 48 | 1019.1 |
| 20260905050013 | 72 | 286 | 2.0 | 6.0 | 0.00 | 0.00 | 0.00 | 49 | 1019.2 |
| 20260905044510 | 71 | 291 | 3.0 | 8.0 | 0.00 | 0.00 | 0.00 | 51 | 1019.1 |
| 20260905043007 | 72 | 193 | 3.0 | 7.0 | 0.00 | 0.00 | 0.00 | 51 | 1019.0 |
| 20260905041506 | 72 | 302 | 2.0 | 7.0 | 0.00 | 0.00 | 0.00 | 52 | 1018.8 |
| 20260905040004 | 72 | 273 | 3.0 | 8.0 | 0.00 | 0.00 | 0.00 | 52 | 1018.8 |
| 20260905034502 | 73 | 217 | 2.0 | 5.0 | 0.00 | 0.00 | 0.00 | 52 | 1018.7 |
| 20260905033109 | 73 | 264 | 3.0 | 5.0 | 0.00 | 0.00 | 0.00 | 53 | 1018.7 |
| 20260905031614 | 73 | 189 | 0.0 | 4.0 | 0.00 | 0.00 | 0.00 | 54 | 1018.7 |
| 20260905030058 | 73 | 286 | 2.0 | 5.0 | 0.00 | 0.00 | 0.00 | 54 | 1018.8 |
| 20260905024557 | 73 | 276 | 2.0 | 5.0 | 0.00 | 0.00 | 0.00 | 55 | 1018.7 |
| 20260905023125 | 73 | 262 | 1.0 | 5.0 | 0.00 | 0.00 | 0.00 | 56 | 1018.8 |
| 20260905021555 | 73 | 212 | 2.0 | 7.0 | 0.00 | 0.00 | 0.00 | 56 | 1018.9 |
| 20260905020054 | 73 | 287 | 2.0 | 7.0 | 0.00 | 0.00 | 0.00 | 57 | 1018.9 |
| 20260905014555 | 73 | 257 | 3.0 | 9.0 | 0.00 | 0.00 | 0.00 | 57 | 1018.9 |
| 20260905013051 | 73 | 252 | 3.0 | 8.0 | 0.00 | 0.00 | 0.00 | 57 | 1019.0 |
| 20260905011556 | 73 | 278 | 1.0 | 6.0 | 0.00 | 0.00 | 0.00 | 57 | 1018.9 |
| 20260905010049 | 73 | 316 | 1.0 | 5.0 | 0.00 | 0.00 | 0.00 | 58 | 1018.9 |
| 20260905004548 | 73 | 280 | 2.0 | 5.0 | 0.00 | 0.00 | 0.00 | 59 | 1019.0 |
| 20260905003046 | 73 | 260 | 2.0 | 6.0 | 0.00 | 0.00 | 0.00 | 60 | 1019.0 |
| 20260905001545 | 73 | 244 | 3.0 | 7.0 | 0.00 | 0.00 | 0.00 | 60 | 1019.1 |
| 20260905000055 | 74 | 264 | 1.0 | 4.0 | 0.00 | 0.00 | 0.00 | 61 | 1018.9 |
| 20260904234541 | 74 | 262 | 3.0 | 6.0 | 0.00 | 0.00 | 0.00 | 62 | 1019.1 |
| 20260904233037 | 75 | 269 | 3.0 | 5.0 | 0.00 | 0.00 | 0.00 | 62 | 1019.1 |
| 20260904231536 | 75 | 283 | 1.0 | 4.0 | 0.00 | 0.00 | 0.00 | 63 | 1019.2 |
| 20260904230035 | 75 | 269 | 2.0 | 5.0 | 0.00 | 0.00 | 0.00 | 63 | 1019.3 |
| 20260904224533 | 75 | 272 | 1.0 | 4.0 | 0.00 | 0.00 | 0.00 | 64 | 1019.4 |
| 20260904223031 | 75 | 283 | 0.0 | 4.0 | 0.00 | 0.00 | 0.00 | 65 | 1019.4 |
| 20260904221529 | 76 | 300 | 1.0 | 4.0 | 0.00 | 0.00 | 0.00 | 65 | 1019.5 |
| 20260904220043 | 76 | 286 | 0.0 | 4.0 | 0.00 | 0.00 | 0.00 | 66 | 1019.5 |
| 20260904214523 | 77 | 343 | 0.0 | 4.0 | 0.00 | 0.00 | 0.00 | 66 | 1019.6 |
| 20260904213022 | 77 | 281 | 1.0 | 3.0 | 0.00 | 0.00 | 0.00 | 67 | 1019.5 |
| 20260904211522 | 78 | 248 | 0.0 | 3.0 | 0.00 | 0.00 | 0.00 | 67 | 1019.6 |
| 20260904210032 | 78 | 291 | 1.0 | 4.0 | 0.00 | 0.00 | 0.00 | 67 | 1019.6 |
| 20260904204521 | 78 | 273 | 0.0 | 1.0 | 0.00 | 0.00 | 0.00 | 67 | 1019.7 |
| 20260904203032 | 80 | 250 | 1.0 | 4.0 | 0.00 | 0.00 | 0.00 | 67 | 1019.6 |
| 20260904201519 | 81 | 269 | 1.0 | 4.0 | 0.00 | 0.00 | 0.00 | 69 | 1019.6 |
| 20260904200021 | 82 | 70 | 2.0 | 3.0 | 0.00 | 0.00 | 0.00 | 70 | 1019.6 |
| 20260904194541 | 81 | 59 | 2.0 | 2.0 | 0.00 | 0.00 | 0.00 | 70 | 1019.7 |
| 20260904193018 | 82 | 57 | 0.0 | 5.0 | 0.00 | 0.00 | 0.00 | 70 | 1019.6 |
| 20260904191523 | 82 | 73 | 2.0 | 7.0 | 0.00 | 0.00 | 0.00 | 70 | 1019.6 |
| 20260904190016 | 82 | 15 | 4.0 | 7.0 | 0.00 | 0.00 | 0.00 | 66 | 1019.6 |
| 20260904184518 | 82 | 55 | 1.0 | 5.0 | 0.00 | 0.00 | 0.00 | 63 | 1019.5 |
| 20260904183015 | 82 | 21 | 4.0 | 8.0 | 0.00 | 0.00 | 0.00 | 65 | 1019.3 |
| 20260904181515 | 83 | 21 | 4.0 | 11.0 | 0.00 | 0.00 | 0.00 | 65 | 1019.2 |
| 20260904180015 | 83 | 19 | 2.0 | 7.0 | 0.00 | 0.00 | 0.00 | 64 | 1019.0 |
| 20260904174529 | 83 | 14 | 1.0 | 4.0 | 0.00 | 0.00 | 0.00 | 64 | 1018.9 |
| 20260904173013 | 83 | 28 | 3.0 | 6.0 | 0.00 | 0.00 | 0.00 | 64 | 1018.7 |
| 20260904171517 | 83 | 98 | 1.0 | 6.0 | 0.00 | 0.00 | 0.00 | 66 | 1018.6 |
| 20260904170012 | 83 | 58 | 6.0 | 8.0 | 0.00 | 0.00 | 0.00 | 67 | 1018.6 |
| 20260904164511 | 83 | 77 | 5.0 | 9.0 | 0.00 | 0.00 | 0.00 | 68 | 1018.6 |
| 20260904163011 | 83 | 42 | 6.0 | 12.0 | 0.00 | 0.00 | 0.00 | 68 | 1018.6 |
| 20260904161510 | 83 | 73 | 7.0 | 13.0 | 0.00 | 0.00 | 0.00 | 70 | 1018.6 |
| 20260904160010 | 83 | 75 | 8.0 | 12.0 | 0.00 | 0.00 | 0.00 | 68 | 1018.7 |
| 20260904154509 | 84 | 47 | 8.0 | 11.0 | 0.00 | 0.00 | 0.00 | 64 | 1018.6 |
| 20260904153008 | 84 | 54 | 7.0 | 11.0 | 0.00 | 0.00 | 0.00 | 63 | 1018.8 |
| 20260904151508 | 84 | 69 | 8.0 | 12.0 | 0.00 | 0.00 | 0.00 | 63 | 1018.8 |
| 20260904150011 | 84 | 68 | 8.0 | 12.0 | 0.00 | 0.00 | 0.00 | 66 | 1018.7 |